Lid_Strength_Index
6 7 6 7 7 6 6 6 6 5 5 4 4 3 3 2 2 3 4 1 3 5 4 4 4 5 5 5 7 6 6 6 7 8 9 9 9 8 9 8 9 10 11 11 10 12 13 5 6 9 7 5 4 4
7 7 7 7 7 6 6 6 5 5 4 4 3 3 3 2 2 3 4 1 1 4 4 3 3 2 3 3 5 4 6 6 7 8 9 9 11 9 10 13 6 12 9 10 9 9 5 5 5 4 4 4 4 3
7 7 7 7 7 6 6 6 5 4 4 4 3 3 3 2 2 2 3 2 2 5 5 4 4 1 0 1 0 6 4 3 4 4 6 8 11 9 12 11 11 9 8 10 9 6 6 4 4 4 3 3 3 3
7 7 7 7 6 6 6 5 4 4 4 3 3 3 3 2 2 2 3 2 2 4 8 6 1 2 0 1 1 1 2 2 3 4 7 8 9 6 10 10 10 9 8 10 10 7 6 5 4 4 3 3 3 3
7 7 6 6 6 5 5 5 4 4 3 3 3 3 2 2 2 2 2 2 1 4 8 6 3 2 1 1 2 2 2 3 4 6 7 9 6 7 7 8 9 7 9 11 12 8 8 7 5 4 4 3 3 3
6 6 6 6 5 5 5 5 4 3 3 3 3 3 2 2 2 3 5 3 2 1 6 9 3 3 2 2 2 2 3 3 4 6 6 6 4 7 9 10 7 5 6 6 8 5 6 5 4 4 4 3 3 3
5 5 5 5 5 5 5 4 4 3 3 3 2 3 2 3 3 5 5 3 2 2 6 8 7 4 2 2 3 3 3 4 4 5 6 6 7 6 8 10 6 5 5 5 5 6 7 6 6 3 3 3 3 3
5 5 5 5 5 5 4 4 4 4 3 2 2 2 2 2 3 4 2 3 1 3 4 9 7 7 3 6 6 3 5 5 5 5 5 7 6 7 10 7 5 5 5 5 4 4 4 4 4 3 3 3 3 4
5 5 5 5 5 4 4 4 4 3 3 2 2 3 3 3 4 2 1 1 1 3 8 8 9 11 3 6 6 5 5 8 5 7 7 6 8 11 7 6 6 5 5 5 4 4 4 4 5 4 3 3 4 4
5 5 5 5 4 4 4 4 4 3 3 3 3 3 5 2 1 0 1 4 5 6 7 9 5 8 5 6 7 8 7 9 11 8 6 8 9 6 5 5 5 4 4 4 6 7 5 4 6 4 4 3 3 3
5 5 5 5 4 5 5 4 3 3 3 2 4 4 1 -0 2 4 7 8 7 9 6 6 6 7 4 8 8 7 9 9 13 10 10 10 10 7 5 4 4 3 3 3 4 4 4 4 4 4 3 3 3 3
5 5 5 4 5 5 4 4 3 3 3 4 5 3 2 3 5 8 9 8 9 10 8 8 7 6 5 4 8 7 10 10 14 8 11 13 9 7 6 4 4 3 3 4 3 4 3 3 3 3 3 3 3 3
5 5 5 5 5 5 4 4 4 3 3 3 4 5 6 6 11 11 11 11 10 8 7 7 8 6 5 5 8 8 12 12 8 12 12 11 8 7 6 5 4 3 3 4 3 3 3 3 2 4 4 3 2 2
5 5 5 5 5 4 4 3 4 3 4 5 6 11 8 10 8 8 8 8 6 6 7 7 7 7 7 9 8 12 10 10 13 14 14 10 8 7 6 4 4 4 4 3 3 3 3 3 3 2 3 3 4 4
5 5 5 5 4 4 3 3 3 3 4 6 6 11 8 6 5 6 5 5 5 5 6 7 7 8 9 10 9 10 12 14 13 13 10 8 7 6 6 5 4 4 4 3 3 3 3 3 3 2 3 3 3 3
5 5 4 4 3 3 3 3 3 3 4 5 5 7 5 6 6 5 6 6 4 4 4 6 9 10 10 10 11 12 12 14 12 9 7 6 6 5 5 4 4 4 4 3 3 3 2 2 2 2 3 3 3 3
5 5 4 4 4 3 3 3 3 5 5 6 6 4 5 5 6 5 5 5 2 5 8 8 11 11 8 10 12 10 11 9 8 7 5 5 5 5 4 4 4 3 3 4 3 3 2 2 2 2 3 2 2 2
5 3 4 4 4 3 3 3 5 5 7 5 6 5 4 4 5 5 5 3 4 5 6 8 7 10 11 12 11 9 7 6 5 5 4 5 5 3 4 4 4 3 2 2 2 2 2 2 4 3 2 2 2 2
4 5 4 4 4 5 5 5 4 7 5 4 4 4 4 4 3 3 4 3 3 3 5 6 9 11 10 8 9 7 7 5 6 6 5 4 3 3 3 3 3 3 3 2 2 3 3 3 3 2 2 2 2 2
4 4 4 4 4 5 6 5 2 5 6 5 4 5 5 5 3 4 4 4 4 5 7 8 8 8 8 6 6 6 5 5 6 7 6 4 3 3 3 3 3 2 3 2 2 5 2 2 2 2 2 2 2 2
5 4 4 4 3 4 6 5 5 4 4 5 4 5 5 4 5 5 5 3 5 6 7 6 5 4 3 4 3 3 4 3 4 4 4 4 3 3 3 3 2 2 3 3 3 3 4 3 3 2 2 2 2 2
3 4 3 4 4 4 5 4 5 4 5 5 5 4 6 7 6 5 4 6 6 5 5 5 4 4 3 3 2 2 2 2 2 3 5 5 4 4 3 3 3 4 3 3 3 3 3 2 2 2 3 2 3 2
4 4 4 4 6 7 8 3 6 5 7 7 5 7 7 7 6 3 7 6 5 3 3 3 2 2 3 2 2 2 2 2 3 3 3 4 4 2 4 3 3 3 3 3 2 3 3 5 3 2 2 2 2 2
5 5 7 7 6 9 5 6 5 6 6 7 8 8 7 7 4 7 8 7 5 4 3 3 3 3 3 3 3 3 2 2 2 2 2 3 4 2 2 3 3 2 2 2 3 3 2 3 4 2 2 3 2 3
10 10 8 11 6 7 8 7 6 7 8 7 8 8 8 6 9 9 8 7 6 6 5 3 4 5 5 4 3 2 1 2 3 3 2 2 2 3 3 3 2 2 2 3 3 3 3 2 2 2 3 3 4 5
11 8 9 8 7 7 7 9 8 9 8 9 8 6 6 8 10 10 9 7 5 4 4 4 5 5 4 3 4 3 2 1 1 3 2 1 2 3 3 4 4 3 1 2 3 2 3 2 2 3 4 5 8 4
10 8 6 4 5 5 7 6 6 7 9 9 8 9 9 11 10 9 6 4 4 3 2 2 3 3 4 3 2 2 1 1 1 2 1 1 2 1 2 3 3 2 1 1 1 2 2 2 2 2 3 3 4 4
6 5 7 6 6 5 7 7 8 9 8 7 8 10 11 10 9 5 5 4 4 2 2 2 2 2 2 2 2 2 2 1 1 1 1 1 1 1 1 1 1 7 1 1 1 2 3 3 3 3 2 3 3 3
6 5 5 6 6 6 6 7 7 6 5 7 9 9 8 6 5 6 5 3 2 2 3 3 3 2 2 2 2 1 1 2 3 4 4 5 4 3 1 1 1 1 1 1 7 3 2 1 2 2 2 2 2 2
6 4 6 6 8 8 6 5 6 5 4 4 5 5 6 6 4 3 3 3 3 4 3 3 2 2 3 3 3 2 1 1 1 2 4 4 3 1 1 1 1 1 1 1 1 2 7 2 3 1 1 2 2 2
4 4 6 6 7 6 5 4 4 4 5 5 5 7 7 5 4 2 3 2 3 3 3 3 3 3 3 3 3 3 4 1 1 1 1 1 1 1 1 0 0 0 0 1 1 1 1 2 2 2 2 3 2 2
5 6 7 8 8 5 4 6 7 7 7 6 6 5 5 5 7 4 2 2 3 3 4 3 3 3 2 2 2 1 5 1 1 1 0 1 1 0 0 0 0 0 0 1 1 1 1 1 2 2 2 2 2 2
7 7 7 7 8 9 7 8 8 8 6 7 6 5 6 6 6 3 1 1 2 2 3 2 1 1 2 1 1 1 3 3 6 10 9 9 10 6 1 0 0 0 0 1 1 1 1 1 1 1 1 1 1 1